West Palm Beach, FL

11:41 AM EDT on August 23, 2019 (GMT -0400)
Palm Beach International

Weather History for KPBI - May, 2019

Change the Weather History Date:

Thursday, May 2, 2019

  Actual Average Record
Temperature  
Mean Temperature 79 °F 76 °F  
Max Temperature 84 °F 84 °F 94 °F (1929)
Min Temperature 73 °F 68 °F 54 °F (1925)
Degree Days  
Heating Degree Days 0 0  
Month to date heating degree days 0 0  
Since 1 July heating degree days 144 233  
Cooling Degree Days 14 11  
Month to date cooling degree days 26 22  
Year to date cooling degree days 951 717  
Growing Degree Days 28 (Base 50)    
Moisture  
Dew Point 70 °F    
Average Humidity 73    
Maximum Humidity 87    
Minimum Humidity 58    
Precipitation  
Precipitation 0.41 in 0.08 in 2.41 in (2013)
Month to date precipitation 0.63 0.16  
Year to date precipitation 16.35 14.36  
Snow  
Snow 0.00 in - - ()
Month to date snowfall 0.0  
Since 1 July snowfall 0.0  
Snow Depth 0.00 in    
Sea Level Pressure  
Sea Level Pressure 30.03 in    
Wind  
Wind Speed 12 mph (SE)    
Max Wind Speed 24 mph    
Max Gust Speed 32 mph    
Visibility 10 miles    
Events Rain , Thunderstorm    
T = Trace of Precipitation, MM = Missing Value Source: NWS Daily Summary

Daily Weather History Graph

Daily Weather History Graph

Search for Another Location

Airport or City:

Astronomy

May. 02, 2019 Rise Set
Actual Time 6:41 AM EDT 7:53 PM EDT
Civil Twilight 6:17 AM EDT 8:17 PM EDT
Nautical Twilight 5:48 AM EDT 8:46 PM EDT
Astronomical Twilight 5:18 AM EDT 9:17 PM EDT
Moon 5:31 AM EDT (5/2) 5:58 PM EDT (5/2)
Length of Visible Light 14h 00m
Length of Day
13h 11m
Waning Crescent, 5% of the Moon is Illuminated
May 2
Waning Crescent
May 4
New
May 11
First Quarter
May 18
Full
May 26
Last Quarter

Hourly Weather History & Observations

Time (EDT) Temp. Heat Index Dew Point Humidity Pressure Visibility Wind Dir Wind Speed Gust Speed Precip Events Conditions
12:53 AM 75.0 °F - 70.0 °F 84% 30.06 in 10.0 mi East 17.3 mph - 0.00 in   Mostly Cloudy
1:53 AM 75.9 °F - 70.0 °F 82% 30.04 in 10.0 mi East 13.8 mph 23.0 mph 0.08 in   Mostly Cloudy
2:53 AM 75.9 °F - 70.0 °F 82% 30.02 in 10.0 mi East 15.0 mph 21.9 mph 0.00 in   Scattered Clouds
3:53 AM 73.9 °F - 71.1 °F 91% 30.01 in 10.0 mi East 15.0 mph - 0.00 in Rain Light Rain
4:53 AM 75.0 °F - 71.1 °F 87% 30.01 in 10.0 mi East 11.5 mph - 0.13 in Rain Light Rain
5:53 AM 75.9 °F - 71.1 °F 85% 30.01 in 10.0 mi East 15.0 mph 21.9 mph 0.01 in   Mostly Cloudy
6:53 AM 75.9 °F - 70.0 °F 82% 30.01 in 10.0 mi East 17.3 mph - N/A   Mostly Cloudy
7:53 AM 77.0 °F - 70.0 °F 79% 30.04 in 10.0 mi ESE 12.7 mph - N/A   Mostly Cloudy
8:29 AM 77.0 °F - 70.0 °F 79% 30.05 in 10.0 mi ESE 15.0 mph - N/A   Mostly Cloudy
8:53 AM 78.1 °F - 71.1 °F 79% 30.05 in 10.0 mi East 17.3 mph - N/A   Mostly Cloudy
9:53 AM 77.0 °F - 70.0 °F 79% 30.06 in 10.0 mi SSE 12.7 mph - N/A   Mostly Cloudy
10:02 AM 78.1 °F - 70.0 °F 76% 30.06 in 10.0 mi South 11.5 mph - N/A   Mostly Cloudy
10:53 AM 78.1 °F - 69.1 °F 74% 30.06 in 10.0 mi South 6.9 mph - N/A   Mostly Cloudy
11:53 AM 82.0 °F 85.5 °F 69.1 °F 65% 30.06 in 10.0 mi South 8.1 mph - N/A   Mostly Cloudy
12:53 PM 82.0 °F 85.5 °F 69.1 °F 65% 30.05 in 10.0 mi SE 12.7 mph - N/A   Mostly Cloudy
1:53 PM 82.9 °F 87.5 °F 71.1 °F 67% 30.03 in 10.0 mi SSE 16.1 mph - N/A   Scattered Clouds
2:53 PM 82.9 °F 87.0 °F 70.0 °F 65% 30.01 in 10.0 mi SE 17.3 mph - N/A   Mostly Cloudy
3:53 PM 82.9 °F 87.5 °F 71.1 °F 67% 30.00 in 10.0 mi SSE 17.3 mph 23.0 mph N/A   Mostly Cloudy
4:53 PM 82.0 °F 84.1 °F 66.0 °F 58% 30.00 in 10.0 mi South 16.1 mph - N/A   Mostly Cloudy
5:53 PM 80.1 °F 83.8 °F 72.0 °F 76% 29.99 in 10.0 mi SSE 16.1 mph - N/A   Mostly Cloudy
6:18 PM 80.1 °F 84.5 °F 73.9 °F 81% 30.00 in 10.0 mi SSE 10.4 mph - N/A Thunderstorm Mostly Cloudy
6:26 PM 77.0 °F - 66.0 °F 69% 30.00 in 10.0 mi South 20.7 mph 31.1 mph N/A Rain , Thunderstorm Light Thunderstorms and Rain
6:53 PM 73.0 °F - 69.1 °F 87% 30.01 in 3.0 mi SSE 8.1 mph - 0.11 in Rain , Thunderstorm Thunderstorms and Rain
7:04 PM 73.9 °F - 70.0 °F 87% 30.01 in 8.0 mi South 5.8 mph - 0.02 in Rain , Thunderstorm Light Thunderstorms and Rain
7:44 PM 73.9 °F - 68.0 °F 82% 30.02 in 10.0 mi SW 4.6 mph - 0.02 in   Mostly Cloudy
7:53 PM 73.9 °F - 66.9 °F 79% 30.02 in 10.0 mi Calm Calm - 0.03 in Thunderstorm Thunderstorm
8:46 PM 73.9 °F - 68.0 °F 82% 30.04 in 10.0 mi East 4.6 mph - 0.01 in   Mostly Cloudy
8:53 PM 73.9 °F - 68.0 °F 82% 30.04 in 10.0 mi ESE 8.1 mph - 0.01 in   Mostly Cloudy
9:53 PM 73.9 °F - 70.0 °F 87% 30.05 in 10.0 mi SE 5.8 mph - N/A Rain Light Rain
10:53 PM 73.9 °F - 69.1 °F 85% 30.06 in 10.0 mi South 6.9 mph - 0.01 in Rain Light Rain
11:53 PM 73.9 °F - 70.0 °F 87% 30.06 in 10.0 mi SE 6.9 mph - 0.02 in Rain Light Rain